Regional Weather Roundup
Issued by NWS

Home | Current Version | Previous Version | Text Only | Print | Product List | Glossary On
Versions: 1 2 3 4 5 6 7 8 9 10 11 12 13 14 15 16 17 18 19 20 21 22 23 24 25 26 27 28 29 30 31 32 33 34 35 36 37 38 39 40 41 42 43 44 45 46 47 48 49 50
000
ASUS43 KMKX 012200
RWRWI

WISCONSIN REGIONAL WEATHER ROUNDUP
NATIONAL WEATHER SERVICE MILWAUKEE/SULLIVAN WI
500 PM CDT MON SEP 01 2014

NOTE: "FAIR" INDICATES FEW OR NO CLOUDS BELOW 12,000 FEET WITH NO
SIGNIFICANT WEATHER AND/OR OBSTRUCTIONS TO VISIBILITY.

WIZ001-002-006>008-014>016-023>028-012300-
NORTHWEST WISCONSIN

CITY           SKY/WX    TMP DP  RH WIND       PRES   REMARKS
SUPERIOR ARPT  SUNNY     71  54  55 W10G16    29.68R
ASHLAND        SUNNY     72  57  59 W9        29.68R
HAYWARD        PTSUNNY   72  56  57 W10       29.71R
SIREN          SUNNY     74  52  46 NW10      29.73S
RICE LAKE      SUNNY     71  55  56 W9G18     29.74S
LADYSMITH      PTSUNNY   74  56  55 W14       29.74R
EAU CLAIRE     NOT AVBL
MENOMONIE      PTCLDY    77  55  45 W14       29.73S
NEW RICHMOND   MOSUNNY   74  51  44 W13G22    29.75S
OSCEOLA        SUNNY     74  54  49 W10G20    29.77S
$$

WIZ003>005-009-010-017-018-012300-
NORTH CENTRAL WISCONSIN

CITY           SKY/WX    TMP DP  RH WIND       PRES   REMARKS
WOODRUFF       SUNNY     72  58  61 NW8G16    29.68S
RHINELANDER    SUNNY     71  58  63 W15G22    29.70R
EAGLE RIVER    MOSUNNY   70  57  64 W8        29.67S
LAND O LAKES   PTSUNNY   69  58  69 W7        29.68S
PHILLIPS       MOSUNNY   70  55  59 W8        29.70R
TOMAHAWK       SUNNY     72  56  58 W12       29.70R
MEDFORD        MOSUNNY   71  57  60 W13G23    29.72R
MERRILL        SUNNY     73  58  59 W13G20    29.69R
$$

WIZ029-030-035-036-043>047-012300-
CENTRAL WISCONSIN

CITY           SKY/WX    TMP DP  RH WIND       PRES   REMARKS
WAUSAU         SUNNY     74  60  61 W14       29.69R
MOSINEE        MOSUNNY   73  61  64 W13G21    29.72R
MARSHFIELD     MOSUNNY   74  59  59 W15G21    29.73R
STEVENS POINT  SUNNY     73  59  61 W13G21    29.71R
WAUPACA        SUNNY     78  65  65 W9        29.70R HX  80
WAUTOMA        NOT AVBL
WISC RAPIDS    SUNNY     76  60  57 NW14      29.73R
CAMP DOUGLAS   NOT AVBL
$$

WIZ011>013-019>022-031-037>040-048>050-012300-
NORTHEAST WISCONSIN

CITY           SKY/WX    TMP DP  RH WIND       PRES   REMARKS
ANTIGO         MOSUNNY   69  63  80 W10G18    29.69R
STURGEON BAY   MOSUNNY   73  64  73 SW15      29.66S
GREEN BAY      MOSUNNY   75  67  76 SW9       29.67S
MANITOWOC      NOT AVBL
APPLETON       LGT RAIN  72  64  78 SW8       29.70R
CLINTONVILLE   PTSUNNY   75  61  60 W10G17    29.67R
OSHKOSH        LGT RAIN  74  66  76 SW5       29.69R
$$

WIZ032>034-041-042-053>061-012300-
SOUTHWEST WISCONSIN

CITY           SKY/WX    TMP DP  RH WIND       PRES   REMARKS
LA CROSSE      MOSUNNY   80  61  52 NW10      29.74R HX  81
SPARTA         SUNNY     75  59  58 W12G18    29.75R
VIROQUA        FAIR      74  60  61 NW9       29.77R
BOSCOBEL       MOSUNNY   79  61  53 NW14      29.76R HX  80
PRAIRIE DU CHI SUNNY     78  60  52 W10       29.76R HX  80
PLATTEVILLE    PTSUNNY   73  67  82 CALM      29.78R
$$

WIZ056-057-062-063-064-067-068-012300-
SOUTH CENTRAL WISCONSIN

CITY           SKY/WX    TMP DP  RH WIND       PRES   REMARKS
BARABOO/DELLS  PTSUNNY   72  58  62 W10G21    29.75R
LONE ROCK      NOT AVBL
WATERTOWN      PTSUNNY   78  65  64 W10G18    29.73R HX  80
MADISON        PTSUNNY   73  67  81 VRB5      29.74R
MIDDLETON      MOCLDY    74  68  82 SW7       29.75S
MONROE         PTSUNNY   79  64  61 W15G23    29.75S HX  81
JANESVILLE     PTSUNNY   82  63  51 W12       29.74R HX  83
$$

WIZ051-052-058>065-066-070>072-012300-
SOUTHEAST WISCONSIN

CITY           SKY/WX    TMP DP  RH WIND       PRES   REMARKS
MILWAUKEE      MOSUNNY   81  63  54 W16G22    29.72R HX  82
WAUKESHA       PTSUNNY   77  63  61 SW15G23   29.74R
MILWAUKEE/TIMM PTSUNNY   79  61  53 W14G23    29.73R HX  80
RACINE         MOSUNNY   81  65  58 W10G22    29.74R HX  83
BURLINGTON     MOSUNNY   78  65  64 W12       29.74S
KENOSHA        PTSUNNY   80  66  62 W16G24    29.74R HX  82
FOND DU LAC    MOSUNNY   76  65  68 SW10G18   29.71R
SHEBOYGAN      MOSUNNY   76  64  66 W15G22    29.70S
WEST BEND      CLOUDY    75  63  64 W12       29.72R
JUNEAU         MOSUNNY   76  66  71 SW12      29.74R
$$

LSZ147-162-012300-
LAKE SUPERIOR

STATION/POSITION TIME  TEMP    WIND        PRES    WAVE
                       AIR SEA DIR/SP/G            HT/PER
                 (UTC) (F)     (DEG/KT/KT) (MB)    (FT/S)
W MID LAKE BUOY  2050   61 57  250/ 14/ 16 1002.1R   2/ 4
DEVILS ISLAND    2100   65     240/ 16/ 18 1003.4R
PORT WING        2140   70     250/  9/ 11 1004.7S
SAXON HARBOR     2100   71     280/  6/ 11 1004.4
$$

LMZ867-665-643>646-012300-
LAKE MICHIGAN

STATION/POSITION TIME  TEMP    WIND        PRES    WAVE
                       AIR SEA DIR/SP/G            HT/PER
                 (UTC) (F)     (DEG/KT/KT) (MB)    (FT/S)
N MID LAKE BUOY  2050   67 65  230/ 12/ 14 1003.1R   3/ 5
NORTHPORT PIER   2100   74     230/  5/ 13 1003.4S
KEWAUNEE LAKESHO 2100   73     250/  9/ 18 1003.8R
SHEBOYGAN LAKESH 2100   75 57  270/ 17/ 19 1005.4R
ATWATER BUOY     2100   73     250/ 16/ 21 1006.8F
MILWAUKEE LAKESH 2100   79     270/ 17/ 26   N/A
S MID LAKE BUOY  2050   73 70  210/ 12/ 14 1006.4F   2/ 4
KENOSHA   LAKESH 2100   82     240/ 10/ 23 1006.4S
$$

TC  - TEMPERATURE IN CELSIUS
VSB - VISIBILITY IN STATUTE MILES
WCI - WIND CHILL INDEX
HX  - HEAT INDEX




USA.gov is the U.S. government's official web portal to all federal, state and local government web resources and services.